Almeria, Spain

7:38 PM CEST en Octubre 21, 2018 (GMT +0200)
Almeria

Tiempo Historia de LEAM - Octubre, 2018

Change the Weather History Date:

Viernes, Octubre 12, 2018

  Actual Average Record
Temperature  
Temperatura media 71 ° F -  
Temperatura máxima 78 ° F 69 ° F 84 ° F (1999)
Temperatura mínima 64 ° F 57 ° F 57 ° F (1998)
Cooling Degree Days 6    
Growing Degree Days 21 (Base 50)    
Moisture  
Punto de rocío 65 ° F    
Average Humidity 81    
Maximum Humidity 94    
Minimum Humidity 63    
Precipitación  
Precipitación 0.00 pul 0.04 pul - ()
Presión al nivel del mar  
Presión al nivel del mar 30.13 pul    
Viento  
Velocidad del viento 4 mph ()    
Velocidad máxima del viento 8 mph    
Max Gust Speed -    
Visibilidad 6.2 Millas    
Eventos      
Averages and records for this station are not official NWS values.
T = Trace of Precipitation, MM = Missing Value Source: Averaged Metar Reports

Daily Weather History Graph

Daily Weather History Graph

Search for Another Location

Airport or City:

Astronomía

Oct. 12, 2018 Salida Puesta
Hora real 8:14 AM CEST 7:37 PM CEST
Crepúsculo civil 7:48 AM CEST 8:03 PM CEST
Crepúsculo náutico 7:18 AM CEST 8:33 PM CEST
Crepúsculo astronómico 6:48 AM CEST 9:03 PM CEST
Luna 11:29 AM CEST (10/12) 10:07 PM CEST (10/12)
Horas de luz 12h 15m
Horas de luz
11h 23m
Creciente, 12% of the Moon is Illuminated
Oct 12
Creciente
Oct 16
Cuarto creciente
Oct 24
Luna llena
Oct 31
Cuarto menguante
Nov 7
Nueva

Hourly Weather History & Observations

Hora (CEST) Temp. Punto de rocío Humedad Presión Visibilidad Wind Dir Velocidad del viento Velocidad de ráfagas Precip Eventos Condiciones
12:00 AM 69 ° F 66 ° F 86% 30.08 pul - Norte 4.6 mph - -  
12:00 AM 69.8 ° F 64.4 ° F 83% 30.06 pul 6.2 mi Norte 3.5 mph - N/A   Desconocido
12:30 AM 68.0 ° F 64.4 ° F 88% 30.06 pul 6.2 mi Variable 2.3 mph - N/A   Desconocido
1:00 AM 68 ° F 64 ° F 85% 30.09 pul - ESE 3.5 mph - -  
1:00 AM 68.0 ° F 64.4 ° F 88% 30.06 pul 6.2 mi ESE 3.5 mph - N/A   Desconocido
1:30 AM 68.0 ° F 64.4 ° F 88% 30.09 pul 6.2 mi ENE 4.6 mph - N/A   Desconocido
2:00 AM 68 ° F 65 ° F 88% 30.10 pul - NE 4.6 mph - -  
2:00 AM 68.0 ° F 64.4 ° F 88% 30.09 pul 6.2 mi NE 4.6 mph - N/A   Desconocido
2:30 AM 68.0 ° F 64.4 ° F 88% 30.09 pul 6.2 mi NNE 5.8 mph - N/A   Desconocido
3:00 AM 68 ° F 65 ° F 87% 30.09 pul - Norte 4.6 mph - -  
3:00 AM 68.0 ° F 64.4 ° F 88% 30.09 pul 6.2 mi Norte 4.6 mph - N/A   Desconocido
3:30 AM 68.0 ° F 64.4 ° F 88% 30.09 pul 6.2 mi Norte 4.6 mph - N/A   Desconocido
4:00 AM 68.0 ° F 64.4 ° F 88% 30.06 pul 6.2 mi Norte 3.5 mph - N/A   Desconocido
4:30 AM 66.2 ° F 62.6 ° F 88% 30.06 pul 6.2 mi Sin viento Sin viento - N/A   Desconocido
5:00 AM 65 ° F 63 ° F 92% 30.09 pul 22 mi ENE 3.5 mph - -   Despejado
5:00 AM 66.2 ° F 62.6 ° F 88% 30.06 pul - ENE 3.5 mph - N/A   Despejado
5:30 AM 66.2 ° F 62.6 ° F 88% 30.09 pul - NE 2.3 mph - N/A   Despejado
6:00 AM 65 ° F 63 ° F 91% 30.11 pul - Norte 3.5 mph - -  
6:00 AM 64.4 ° F 62.6 ° F 94% 30.09 pul - Norte 3.5 mph - N/A   Despejado
6:30 AM 64.4 ° F 62.6 ° F 94% 30.09 pul - Variable 2.3 mph - N/A   Despejado
7:00 AM 65 ° F 63 ° F 90% 30.11 pul - NNO 5.8 mph - -  
7:00 AM 64.4 ° F 62.6 ° F 94% 30.09 pul - NNO 5.8 mph - N/A   Despejado
7:30 AM 66.2 ° F 62.6 ° F 88% 30.09 pul - Norte 3.5 mph - N/A   Despejado
8:00 AM 65 ° F 63 ° F 91% 30.12 pul 28 mi Norte 4.6 mph - -   Nubes dispersas
8:00 AM 66.2 ° F 62.6 ° F 88% 30.12 pul 6.2 mi Norte 4.6 mph - N/A   Parcialmente nublado
8:30 AM 66.2 ° F 60.8 ° F 83% 30.12 pul 6.2 mi Norte 5.8 mph - N/A   Parcialmente nublado
9:00 AM 67 ° F 63 ° F 83% 30.14 pul - NNE 3.5 mph - -  
9:00 AM 68.0 ° F 60.8 ° F 78% 30.12 pul 6.2 mi Variable 2.3 mph - N/A   Parcialmente nublado
9:30 AM 69.8 ° F 62.6 ° F 78% 30.15 pul 6.2 mi Variable 2.3 mph - N/A   Parcialmente nublado
10:00 AM 72 ° F 63 ° F 67% 30.18 pul - Sin viento Sin viento - -  
10:00 AM 73.4 ° F 62.6 ° F 69% 30.15 pul 6.2 mi Sin viento Sin viento - N/A   Parcialmente nublado
10:30 AM 73.4 ° F 62.6 ° F 69% 30.18 pul 6.2 mi Variable 2.3 mph - N/A   Parcialmente nublado
11:00 AM 73.4 ° F 64.4 ° F 73% 30.18 pul 6.2 mi Sur 3.5 mph - N/A   Parcialmente nublado
11:30 AM 75.2 ° F 66.2 ° F 73% 30.18 pul 6.2 mi SSO 3.5 mph - N/A   Parcialmente nublado
12:00 PM 77 ° F 67 ° F 63% 30.20 pul - SSO 4.6 mph - -  
12:00 PM 75.2 ° F 66.2 ° F 73% 30.18 pul 6.2 mi SSO 3.5 mph - N/A   Parcialmente nublado
12:30 PM 77.0 ° F 66.2 ° F 69% 30.18 pul 6.2 mi Sur 4.6 mph - N/A   Parcialmente nublado
1:00 PM 78 ° F 69 ° F 66% 30.19 pul - Sur 6.9 mph - -  
1:00 PM 75.2 ° F 66.2 ° F 73% 30.18 pul 6.2 mi Sur 6.9 mph - N/A   Parcialmente nublado
1:30 PM 75.2 ° F 66.2 ° F 73% 30.18 pul 6.2 mi SSO 6.9 mph - N/A   Parcialmente nublado
2:00 PM 77.0 ° F 66.2 ° F 69% 30.18 pul 6.2 mi SSO 5.8 mph - N/A   Parcialmente nublado
2:30 PM 75.2 ° F 68.0 ° F 78% 30.15 pul 6.2 mi SSO 6.9 mph - N/A   Parcialmente nublado
3:00 PM 78 ° F 69 ° F 66% 30.16 pul - SSO 6.9 mph - -  
3:00 PM 77.0 ° F 68.0 ° F 74% 30.15 pul 6.2 mi SSO 6.9 mph - N/A   Parcialmente nublado
3:30 PM 77.0 ° F 68.0 ° F 74% 30.15 pul 6.2 mi SSO 6.9 mph - N/A   Parcialmente nublado
4:00 PM 78 ° F 69 ° F 67% 30.16 pul - Sur 8.1 mph - -  
4:00 PM 77.0 ° F 68.0 ° F 74% 30.15 pul 6.2 mi Sur 6.9 mph - N/A   Parcialmente nublado
4:30 PM 77.0 ° F 68.0 ° F 74% 30.15 pul 6.2 mi Sur 6.9 mph - N/A   Parcialmente nublado
5:00 PM 78 ° F 69 ° F 66% 30.15 pul 28 mi Sur 6.9 mph - -   Nubes dispersas
5:30 PM 77.0 ° F 66.2 ° F 69% 30.12 pul 6.2 mi Sur 5.8 mph - N/A   Parcialmente nublado
6:00 PM 77 ° F 68 ° F 66% 30.15 pul - SSO 5.8 mph - -  
6:00 PM 75.2 ° F 66.2 ° F 73% 30.12 pul 6.2 mi SSO 5.8 mph - N/A   Parcialmente nublado
6:30 PM 75.2 ° F 68.0 ° F 78% 30.15 pul 6.2 mi SSO 4.6 mph - N/A   Parcialmente nublado
7:00 PM 73.4 ° F 68.0 ° F 83% 30.12 pul - SSO 3.5 mph - N/A   Despejado
7:30 PM 73.4 ° F 68.0 ° F 83% 30.15 pul - SSO 3.5 mph - N/A   Despejado
8:00 PM 73 ° F 69 ° F 82% 30.15 pul 28 mi Sur 2.3 mph - -   Despejado
8:00 PM 73.4 ° F 68.0 ° F 83% 30.15 pul - Variable 1.2 mph - N/A   Despejado
8:30 PM 71.6 ° F 68.0 ° F 88% 30.15 pul - Variable 2.3 mph - N/A   Despejado
9:00 PM 72 ° F 68 ° F 85% 30.17 pul - SSE 2.3 mph - -  
9:00 PM 71.6 ° F 68.0 ° F 88% 30.15 pul - Variable 2.3 mph - N/A   Despejado
9:30 PM 71.6 ° F 68.0 ° F 88% 30.15 pul - Sin viento Sin viento - N/A   Despejado
10:00 PM 71 ° F 69 ° F 89% 30.18 pul - NNO 4.6 mph - -  
10:00 PM 71.6 ° F 66.2 ° F 83% 30.15 pul - NNO 3.5 mph - N/A   Despejado
10:30 PM 71.6 ° F 68.0 ° F 88% 30.15 pul - Variable 2.3 mph - N/A   Despejado
11:00 PM 70 ° F 66 ° F 85% 30.17 pul - NE 4.6 mph - -  
11:00 PM 69.8 ° F 66.2 ° F 88% 30.15 pul 6.2 mi NE 3.5 mph - N/A   Desconocido
11:30 PM 69.8 ° F 62.6 ° F 78% 30.15 pul 6.2 mi Norte 3.5 mph - N/A   Desconocido